When you browse on this site, cookies collect data to enhance your experience and personalize the content and advertising you see.
Visit our Privacy Policy to learn more. By continuing to use the site, you agree to this use of cookies and data.
  • In Germany
  • List of Countries
  • For 7 days
  • Water Temperature
  • Satellite Maps
  • Weather Map
  • Weather Widgets
  • user-avatar
    Login

    Hourly Weather Neuquén

    Today, 25 April, Thursday

    Time Temperature Precipitation Wind Pressure Humidity
    00:00 +17°C° 0.1 mm 3 mps 739 mmHg 52%
    01:00 +17°C° 0 mm 3 mps 739 mmHg 51%
    02:00 +17°C° 0.9 mm 3 mps 739 mmHg 58%
    03:00 +16°C° 0.9 mm 3 mps 739 mmHg 65%
    04:00 +14°C° 0.9 mm 3 mps 739 mmHg 73%
    05:00 +14°C° 0.5 mm 4 mps 739 mmHg 74%
    06:00 +14°C° 0.5 mm 4 mps 739 mmHg 76%
    07:00 +14°C° 0.5 mm 5 mps 739 mmHg 77%
    08:00 +14°C° 0.2 mm 5 mps 739 mmHg 77%
    09:00 +14°C° 0.2 mm 5 mps 739 mmHg 78%
    10:00 +14°C° 0.2 mm 5 mps 739 mmHg 78%
    11:00 +14°C° 0.1 mm 5 mps 739 mmHg 77%
    12:00 +15°C° 0.1 mm 5 mps 739 mmHg 76%
    13:00 +15°C° 0.1 mm 5 mps 739 mmHg 76%
    14:00 +15°C° 0 mm 5 mps 739 mmHg 76%
    15:00 +15°C° 0 mm 4 mps 738 mmHg 76%
    16:00 +15°C° 0 mm 4 mps 738 mmHg 76%
    17:00 +15°C° 0 mm 4 mps 738 mmHg 79%
    18:00 +14°C° 0 mm 4 mps 738 mmHg 81%
    19:00 +14°C° 0 mm 3 mps 738 mmHg 84%
    20:00 +14°C° 0 mm 3 mps 739 mmHg 85%
    21:00 +15°C° 0 mm 2 mps 739 mmHg 86%
    22:00 +15°C° 0 mm 2 mps 739 mmHg 87%
    23:00 +15°C° 0 mm 2 mps 739 mmHg 88%

    Tomorrow, 26 April, Friday

    Time Temperature Precipitation Wind Pressure Humidity
    00:00 +15°C° 0 mm 2 mps 738 mmHg 88%
    01:00 +15°C° 0 mm 2 mps 738 mmHg 89%
    02:00 +15°C° 0 mm 2 mps 738 mmHg 90%
    03:00 +15°C° 0 mm 1 mps 737 mmHg 92%
    04:00 +14°C° 0 mm 1 mps 737 mmHg 93%
    05:00 +15°C° 0 mm 1 mps 737 mmHg 93%
    06:00 +15°C° 0 mm 1 mps 737 mmHg 92%
    07:00 +15°C° 0 mm 1 mps 737 mmHg 91%
    08:00 +16°C° 0 mm 1 mps 737 mmHg 85%
    09:00 +18°C° 0 mm 1 mps 737 mmHg 79%
    10:00 +19°C° 0 mm 1 mps 737 mmHg 73%
    11:00 +19°C° 0 mm 2 mps 737 mmHg 67%
    12:00 +20°C° 0 mm 2 mps 736 mmHg 61%
    13:00 +21°C° 0 mm 2 mps 736 mmHg 55%
    14:00 +21°C° 0 mm 2 mps 735 mmHg 52%
    15:00 +21°C° 0 mm 2 mps 735 mmHg 49%
    16:00 +23°C° 0 mm 2 mps 734 mmHg 46%
    17:00 +21°C° 0 mm 2 mps 734 mmHg 49%
    18:00 +20°C° 0 mm 2 mps 734 mmHg 52%
    19:00 +19°C° 0 mm 2 mps 734 mmHg 56%
    20:00 +18°C° 0 mm 2 mps 734 mmHg 62%
    21:00 +18°C° 0 mm 3 mps 734 mmHg 68%
    22:00 +17°C° 0 mm 4 mps 734 mmHg 74%
    23:00 +17°C° 0 mm 4 mps 734 mmHg 75%

    Day after tomorrow, 27 April, Saturday

    Time Temperature Precipitation Wind Pressure Humidity
    00:00 +17°C° 0 mm 4 mps 733 mmHg 76%
    01:00 +17°C° 0 mm 3 mps 733 mmHg 77%
    02:00 +17°C° 0 mm 3 mps 733 mmHg 76%
    03:00 +17°C° 0 mm 2 mps 732 mmHg 76%
    04:00 +17°C° 0 mm 2 mps 732 mmHg 75%
    05:00 +17°C° 0 mm 2 mps 732 mmHg 73%
    06:00 +17°C° 0 mm 2 mps 732 mmHg 71%
    07:00 +18°C° 0 mm 1 mps 732 mmHg 69%
    08:00 +20°C° 0 mm 1 mps 732 mmHg 60%
    09:00 +21°C° 0 mm 1 mps 733 mmHg 50%
    10:00 +22°C° 0 mm 1 mps 733 mmHg 41%
    11:00 +24°C° 0 mm 3 mps 732 mmHg 34%
    12:00 +25°C° 0 mm 4 mps 732 mmHg 28%
    13:00 +26°C° 0 mm 6 mps 731 mmHg 21%
    14:00 +26°C° 0 mm 6 mps 731 mmHg 24%
    15:00 +26°C° 0 mm 6 mps 731 mmHg 27%
    16:00 +27°C° 0 mm 6 mps 731 mmHg 31%
    17:00 +25°C° 0 mm 5 mps 731 mmHg 35%
    18:00 +22°C° 0 mm 5 mps 731 mmHg 40%
    19:00 +21°C° 0 mm 4 mps 732 mmHg 45%
    20:00 +20°C° 0 mm 5 mps 732 mmHg 46%
    21:00 +20°C° 0 mm 5 mps 732 mmHg 47%
    22:00 +20°C° 0 mm 5 mps 732 mmHg 49%
    23:00 +19°C° 0 mm 5 mps 732 mmHg 51%

    28 April, Sunday

    Time Temperature Precipitation Wind Pressure Humidity
    00:00 +18°C° 0 mm 4 mps 732 mmHg 53%
    01:00 +18°C° 0 mm 4 mps 732 mmHg 55%
    02:00 +17°C° 0 mm 4 mps 732 mmHg 57%
    03:00 +17°C° 0 mm 3 mps 732 mmHg 59%
    04:00 +16°C° 0 mm 3 mps 731 mmHg 60%
    05:00 +16°C° 0 mm 3 mps 731 mmHg 59%
    06:00 +17°C° 0 mm 2 mps 732 mmHg 58%
    07:00 +17°C° 0 mm 2 mps 732 mmHg 57%
    08:00 +19°C° 0 mm 3 mps 732 mmHg 51%
    09:00 +20°C° 0 mm 4 mps 732 mmHg 45%
    10:00 +22°C° 0 mm 4 mps 732 mmHg 38%
    11:00 +23°C° 0 mm 5 mps 732 mmHg 35%
    12:00 +24°C° 0 mm 6 mps 731 mmHg 31%
    13:00 +26°C° 0 mm 7 mps 731 mmHg 28%
    14:00 +26°C° 0 mm 7 mps 731 mmHg 27%
    15:00 +24°C° 0 mm 8 mps 731 mmHg 27%
    16:00 +24°C° 0 mm 8 mps 731 mmHg 26%
    17:00 +23°C° 0 mm 9 mps 731 mmHg 30%
    18:00 +21°C° 0 mm 10 mps 731 mmHg 33%
    19:00 +19°C° 0 mm 11 mps 732 mmHg 37%
    20:00 +18°C° 0 mm 11 mps 732 mmHg 39%
    21:00 +17°C° 0 mm 11 mps 732 mmHg 41%
    22:00 +16°C° 0 mm 11 mps 732 mmHg 44%
    23:00 +14°C° 0 mm 11 mps 732 mmHg 43%

    29 April, Monday

    Time Temperature Precipitation Wind Pressure Humidity
    00:00 +14°C° 0 mm 11 mps 732 mmHg 42%
    01:00 +13°C° 0 mm 11 mps 732 mmHg 41%
    02:00 +12°C° 0 mm 11 mps 733 mmHg 38%
    03:00 +12°C° 0 mm 10 mps 733 mmHg 36%
    04:00 +11°C° 0 mm 10 mps 733 mmHg 33%
    05:00 +11°C° 0 mm 9 mps 734 mmHg 34%
    06:00 +10°C° 0 mm 8 mps 734 mmHg 35%
    07:00 +10°C° 0 mm 8 mps 735 mmHg 35%
    08:00 +11°C° 0 mm 9 mps 735 mmHg 33%
    09:00 +12°C° 0 mm 9 mps 736 mmHg 30%
    10:00 +14°C° 0 mm 10 mps 736 mmHg 28%
    11:00 +14°C° 0 mm 10 mps 736 mmHg 26%
    12:00 +16°C° 0 mm 10 mps 735 mmHg 23%
    13:00 +17°C° 0 mm 9 mps 735 mmHg 21%
    14:00 +17°C° 0 mm 9 mps 735 mmHg 21%
    15:00 +17°C° 0 mm 9 mps 735 mmHg 21%
    16:00 +17°C° 0 mm 8 mps 735 mmHg 21%
    17:00 +16°C° 0 mm 7 mps 736 mmHg 22%
    18:00 +15°C° 0 mm 6 mps 736 mmHg 24%
    19:00 +14°C° 0 mm 6 mps 737 mmHg 25%
    20:00 +13°C° 0 mm 6 mps 737 mmHg 28%
    21:00 +13°C° 0 mm 6 mps 738 mmHg 30%
    22:00 +11°C° 0 mm 6 mps 738 mmHg 33%
    23:00 +10°C° 0 mm 6 mps 738 mmHg 34%

    30 April, Tuesday

    Time Temperature Precipitation Wind Pressure Humidity
    00:00 +10°C° 0 mm 5 mps 739 mmHg 36%
    01:00 +10°C° 0 mm 4 mps 739 mmHg 37%
    02:00 +9°C° 0 mm 3 mps 739 mmHg 39%
    03:00 +10°C° 0 mm 1 mps 739 mmHg 40%
    04:00 +8°C° 0 mm 0 mps 739 mmHg 41%
    05:00 +9°C° 0 mm 1 mps 739 mmHg 40%
    06:00 +10°C° 0 mm 1 mps 739 mmHg 39%
    07:00 +10°C° 0 mm 1 mps 740 mmHg 38%
    08:00 +12°C° 0 mm 2 mps 740 mmHg 34%
    09:00 +12°C° 0 mm 3 mps 740 mmHg 29%
    10:00 +14°C° 0 mm 4 mps 740 mmHg 24%
    11:00 +15°C° 0 mm 4 mps 739 mmHg 22%
    12:00 +17°C° 0 mm 4 mps 738 mmHg 20%
    13:00 +17°C° 0 mm 5 mps 737 mmHg 19%
    14:00 +18°C° 0 mm 4 mps 736 mmHg 19%
    15:00 +18°C° 0 mm 4 mps 736 mmHg 20%
    16:00 +18°C° 0 mm 3 mps 735 mmHg 21%
    17:00 +17°C° 0 mm 3 mps 735 mmHg 23%
    18:00 +16°C° 0 mm 2 mps 735 mmHg 26%
    19:00 +15°C° 0 mm 1 mps 735 mmHg 28%
    20:00 +14°C° 0 mm 1 mps 735 mmHg 29%
    21:00 +14°C° 0 mm 1 mps 736 mmHg 30%
    22:00 +14°C° 0 mm 1 mps 736 mmHg 31%
    23:00 +14°C° 0 mm 2 mps 736 mmHg 31%
    Show more